Location: Acequia del Cap
(41.7000°N, 0.6167°E)
Time: 01:05:20
(UTC+00:00)

SL-16 R/B - Pass Details

Date: 07 August 2020
Orbit: 840 x 849 km, 71.0° (Epoch: 22 September)

Event Time Altitude Azimuth Distance (km) Brightness Sun altitude
Rises 02:00:07 0° 339° (NNW) 3,421 5.9 -26.0°
Reaches altitude 10° 02:02:38 10° 344° (NNW) 2,482 5.1 -25.8°
Maximum altitude 02:08:15 57° 62° (ENE) 998 2.8 -25.2°
Enters shadow 02:13:10 13° 139° (SE) 2,232 4.2 -24.7°
